Year,Month,Day,Hour,Minute,Value (Times are PST for temperature in C)
2008,08,15,00,00,21.60
2008,08,15,00,01,21.60
2008,08,15,00,02,21.60
2008,08,15,00,03,21.60
2008,08,15,00,04,21.60
2008,08,15,00,05,21.60
2008,08,15,00,06,21.60
2008,08,15,00,07,21.60
2008,08,15,00,08,21.60
2008,08,15,00,09,21.60
2008,08,15,00,10,21.60
2008,08,15,00,11,21.60
2008,08,15,00,12,21.50
2008,08,15,00,13,21.40
2008,08,15,00,14,21.40
2008,08,15,00,15,21.40
2008,08,15,00,16,21.40
2008,08,15,00,17,21.40
2008,08,15,00,18,21.40
2008,08,15,00,19,21.40
2008,08,15,00,20,21.40
2008,08,15,00,21,21.40
2008,08,15,00,22,21.40
2008,08,15,00,23,21.40
2008,08,15,00,24,21.40
2008,08,15,00,25,21.40
2008,08,15,00,26,21.40
2008,08,15,00,27,21.30
2008,08,15,00,28,21.30
2008,08,15,00,29,21.30
2008,08,15,00,30,21.30
2008,08,15,00,31,21.30
2008,08,15,00,32,21.30
2008,08,15,00,33,21.30
2008,08,15,00,34,21.30
2008,08,15,00,35,21.30
2008,08,15,00,36,21.30
2008,08,15,00,37,21.20
2008,08,15,00,38,21.20
2008,08,15,00,39,21.10
2008,08,15,00,40,21.10
2008,08,15,00,41,21.00
2008,08,15,00,42,21.00
2008,08,15,00,43,20.90
2008,08,15,00,44,20.90
2008,08,15,00,45,20.80
2008,08,15,00,46,20.80
2008,08,15,00,47,20.70
2008,08,15,00,48,20.70
2008,08,15,00,49,20.70
2008,08,15,00,50,20.60
2008,08,15,00,51,20.60
2008,08,15,00,52,20.60
2008,08,15,00,53,20.60
2008,08,15,00,54,20.50
2008,08,15,00,55,20.50
2008,08,15,00,56,20.50
2008,08,15,00,57,20.50
2008,08,15,00,58,20.50
2008,08,15,00,59,20.50
2008,08,15,01,00,20.50
2008,08,15,01,01,20.50
2008,08,15,01,02,20.50
2008,08,15,01,03,20.40
2008,08,15,01,04,20.40
2008,08,15,01,05,20.40
2008,08,15,01,06,20.40
2008,08,15,01,07,20.40
2008,08,15,01,08,20.40
2008,08,15,01,09,20.40
2008,08,15,01,10,20.40
2008,08,15,01,11,20.40
2008,08,15,01,12,20.40
2008,08,15,01,13,20.40
2008,08,15,01,14,20.40
2008,08,15,01,15,20.50
2008,08,15,01,16,20.50
2008,08,15,01,17,20.50
2008,08,15,01,18,20.50
2008,08,15,01,19,20.40
2008,08,15,01,20,20.40
2008,08,15,01,21,20.40
2008,08,15,01,22,20.40
2008,08,15,01,23,20.40
2008,08,15,01,24,20.40
2008,08,15,01,25,20.40
2008,08,15,01,26,20.40
2008,08,15,01,27,20.30
2008,08,15,01,28,20.30
2008,08,15,01,29,20.30
2008,08,15,01,30,20.20
2008,08,15,01,31,20.20
2008,08,15,01,32,20.20
2008,08,15,01,33,20.20
2008,08,15,01,34,20.00
2008,08,15,01,35,19.90
2008,08,15,01,36,19.90
2008,08,15,01,37,19.80
2008,08,15,01,38,19.70
2008,08,15,01,39,19.60
2008,08,15,01,40,19.50
2008,08,15,01,41,19.50
2008,08,15,01,42,19.30
2008,08,15,01,43,19.20
2008,08,15,01,44,19.10
2008,08,15,01,45,19.10
2008,08,15,01,46,18.90
2008,08,15,01,47,18.90
2008,08,15,01,48,18.90
2008,08,15,01,49,18.90
2008,08,15,01,50,18.90
2008,08,15,01,51,18.90
2008,08,15,01,52,18.90
2008,08,15,01,53,18.90
2008,08,15,01,54,18.90
2008,08,15,01,55,18.90
2008,08,15,01,56,18.90
2008,08,15,01,57,18.90
2008,08,15,01,58,18.90
2008,08,15,01,59,18.90
2008,08,15,02,00,18.90
2008,08,15,02,01,18.90
2008,08,15,02,02,18.90
2008,08,15,02,03,18.90
2008,08,15,02,04,18.90
2008,08,15,02,05,18.90
2008,08,15,02,06,18.80
2008,08,15,02,07,18.80
2008,08,15,02,08,18.80
2008,08,15,02,09,18.70
2008,08,15,02,10,18.70
2008,08,15,02,11,18.70
2008,08,15,02,12,18.70
2008,08,15,02,13,18.70
2008,08,15,02,14,18.70
2008,08,15,02,15,18.70
2008,08,15,02,16,18.70
2008,08,15,02,17,18.70
2008,08,15,02,18,18.70
2008,08,15,02,19,18.60
2008,08,15,02,20,18.60
2008,08,15,02,21,18.60
2008,08,15,02,22,18.60
2008,08,15,02,23,18.60
2008,08,15,02,24,18.60
2008,08,15,02,25,18.60
2008,08,15,02,26,18.50
2008,08,15,02,27,18.60
2008,08,15,02,28,18.60
2008,08,15,02,29,18.60
2008,08,15,02,30,18.60
2008,08,15,02,31,18.60
2008,08,15,02,32,18.60
2008,08,15,02,33,18.60
2008,08,15,02,34,18.60
2008,08,15,02,35,18.70
2008,08,15,02,36,18.70
2008,08,15,02,37,18.70
2008,08,15,02,38,18.70
2008,08,15,02,39,18.70
2008,08,15,02,40,18.70
2008,08,15,02,41,18.70
2008,08,15,02,42,18.70
2008,08,15,02,43,18.70
2008,08,15,02,44,18.70
2008,08,15,02,45,18.70
2008,08,15,02,46,18.70
2008,08,15,02,47,18.70
2008,08,15,02,48,18.70
2008,08,15,02,49,18.70
2008,08,15,02,50,18.60
2008,08,15,02,51,18.60
2008,08,15,02,52,18.50
2008,08,15,02,53,18.50
2008,08,15,02,54,18.50
2008,08,15,02,55,18.40
2008,08,15,02,56,18.40
2008,08,15,02,57,18.30
2008,08,15,02,58,18.20
2008,08,15,02,59,18.20
2008,08,15,03,00,18.10
2008,08,15,03,01,18.10
2008,08,15,03,02,18.00
2008,08,15,03,03,17.90
2008,08,15,03,04,17.90
2008,08,15,03,05,17.90
2008,08,15,03,06,17.90
2008,08,15,03,07,17.90
2008,08,15,03,08,17.80
2008,08,15,03,09,17.80
2008,08,15,03,10,17.80
2008,08,15,03,11,17.90
2008,08,15,03,12,17.90
2008,08,15,03,13,17.90
2008,08,15,03,14,17.90
2008,08,15,03,15,17.90
2008,08,15,03,16,17.90
2008,08,15,03,17,17.90
2008,08,15,03,18,17.90
2008,08,15,03,19,17.90
2008,08,15,03,20,17.90
2008,08,15,03,21,17.90
2008,08,15,03,22,17.90
2008,08,15,03,23,17.90
2008,08,15,03,24,17.90
2008,08,15,03,25,17.90
2008,08,15,03,26,17.80
2008,08,15,03,27,17.80
2008,08,15,03,28,17.80
2008,08,15,03,29,17.80
2008,08,15,03,30,17.80
2008,08,15,03,31,17.70
2008,08,15,03,32,17.70
2008,08,15,03,33,17.70
2008,08,15,03,34,17.70
2008,08,15,03,35,17.70
2008,08,15,03,36,17.80
2008,08,15,03,37,17.80
2008,08,15,03,38,17.80
2008,08,15,03,39,17.80
2008,08,15,03,40,17.80
2008,08,15,03,41,17.80
2008,08,15,03,42,17.80
2008,08,15,03,43,17.80
2008,08,15,03,44,17.80
2008,08,15,03,45,17.80
2008,08,15,03,46,17.80
2008,08,15,03,47,17.80
2008,08,15,03,48,17.80
2008,08,15,03,49,17.70
2008,08,15,03,50,17.80
2008,08,15,03,51,17.80
2008,08,15,03,52,17.80
2008,08,15,03,53,17.80
2008,08,15,03,54,17.80
2008,08,15,03,55,17.80
2008,08,15,03,56,17.80
2008,08,15,03,57,17.80
2008,08,15,03,58,17.80
2008,08,15,03,59,17.80
2008,08,15,04,00,17.80
2008,08,15,04,01,17.80
2008,08,15,04,02,17.80
2008,08,15,04,03,17.80
2008,08,15,04,04,17.80
2008,08,15,04,05,17.80
2008,08,15,04,06,17.80
2008,08,15,04,07,17.80
2008,08,15,04,08,17.80
2008,08,15,04,09,17.70
2008,08,15,04,10,17.70
2008,08,15,04,21,17.70
2008,08,15,04,23,17.70
2008,08,15,04,24,17.70
2008,08,15,04,25,17.70
2008,08,15,04,26,17.80
2008,08,15,04,27,17.80
2008,08,15,04,28,17.80
2008,08,15,04,29,17.80
2008,08,15,04,30,17.80
2008,08,15,04,31,17.80
2008,08,15,04,32,17.70
2008,08,15,04,33,17.70
2008,08,15,04,34,17.70
2008,08,15,04,35,17.70
2008,08,15,04,36,17.60
2008,08,15,04,37,17.60
2008,08,15,04,38,17.60
2008,08,15,04,39,17.60
2008,08,15,04,40,17.60
2008,08,15,04,41,17.60
2008,08,15,04,42,17.60
2008,08,15,04,43,17.60
2008,08,15,04,44,17.60
2008,08,15,04,45,17.60
2008,08,15,04,46,17.60
2008,08,15,04,47,17.60
2008,08,15,04,48,17.50
2008,08,15,04,49,17.50
2008,08,15,04,50,17.50
2008,08,15,04,51,17.50
2008,08,15,04,52,17.40
2008,08,15,04,53,17.40
2008,08,15,04,54,17.40
2008,08,15,04,55,17.40
2008,08,15,04,56,17.40
2008,08,15,04,57,17.40
2008,08,15,04,58,17.40
2008,08,15,04,59,17.40
2008,08,15,05,00,17.40
2008,08,15,05,01,17.40
2008,08,15,05,02,17.40
2008,08,15,05,03,17.30
2008,08,15,05,04,17.30
2008,08,15,05,05,17.30
2008,08,15,05,06,17.30
2008,08,15,05,07,17.40
2008,08,15,05,08,17.40
2008,08,15,05,09,17.40
2008,08,15,05,10,17.40
2008,08,15,05,11,17.40
2008,08,15,05,12,17.40
2008,08,15,05,13,17.40
2008,08,15,05,14,17.40
2008,08,15,05,15,17.40
2008,08,15,05,16,17.40
2008,08,15,05,17,17.50
2008,08,15,05,18,17.50
2008,08,15,05,19,17.50
2008,08,15,05,20,17.50
2008,08,15,05,21,17.50
2008,08,15,05,22,17.50
2008,08,15,05,23,17.50
2008,08,15,05,24,17.50
2008,08,15,05,25,17.60
2008,08,15,05,26,17.60
2008,08,15,05,27,17.60
2008,08,15,05,28,17.60
2008,08,15,05,29,17.70
2008,08,15,05,30,17.70
2008,08,15,05,31,17.70
2008,08,15,05,32,17.70
2008,08,15,05,33,17.80
2008,08,15,05,34,17.80
2008,08,15,05,35,17.80
2008,08,15,05,36,17.90
2008,08,15,05,37,17.90
2008,08,15,05,38,17.90
2008,08,15,05,39,17.90
2008,08,15,05,40,18.00
2008,08,15,05,41,18.10
2008,08,15,05,42,18.10
2008,08,15,05,43,18.10
2008,08,15,05,44,18.20
2008,08,15,05,45,18.20
2008,08,15,05,46,18.20
2008,08,15,05,47,18.20
2008,08,15,05,48,18.20
2008,08,15,05,49,18.20
2008,08,15,05,50,18.20
2008,08,15,05,51,18.20
2008,08,15,05,52,18.30
2008,08,15,05,53,18.30
2008,08,15,05,54,18.30
2008,08,15,05,55,18.30
2008,08,15,05,56,18.30
2008,08,15,05,57,18.30
2008,08,15,05,58,18.30
2008,08,15,05,59,18.30
2008,08,15,06,00,18.30
2008,08,15,06,01,18.30
2008,08,15,06,02,18.30
2008,08,15,06,03,18.30
2008,08,15,06,04,18.30
2008,08,15,06,05,18.30
2008,08,15,06,06,18.30
2008,08,15,06,07,18.30
2008,08,15,06,08,18.30
2008,08,15,06,09,18.30
2008,08,15,06,10,18.30
2008,08,15,06,11,18.20
2008,08,15,06,12,18.20
2008,08,15,06,13,18.20
2008,08,15,06,14,18.20
2008,08,15,06,15,18.20
2008,08,15,06,16,18.20
2008,08,15,06,17,18.20
2008,08,15,06,18,18.20
2008,08,15,06,19,18.20
2008,08,15,06,20,18.20
2008,08,15,06,21,18.10
2008,08,15,06,22,18.10
2008,08,15,06,23,18.00
2008,08,15,06,24,17.90
2008,08,15,06,25,17.90
2008,08,15,06,26,17.90
2008,08,15,06,27,17.90
2008,08,15,06,28,17.90
2008,08,15,06,29,17.90
2008,08,15,06,30,17.90
2008,08,15,06,31,18.00
2008,08,15,06,32,18.10
2008,08,15,06,33,18.10
2008,08,15,06,34,18.10
2008,08,15,06,35,18.20
2008,08,15,06,36,18.20
2008,08,15,06,37,18.30
2008,08,15,06,38,18.40
2008,08,15,06,39,18.40
2008,08,15,06,40,18.50
2008,08,15,06,41,18.50
2008,08,15,06,42,18.50
2008,08,15,06,43,18.50
2008,08,15,06,44,18.60
2008,08,15,06,45,18.50
2008,08,15,06,46,18.60
2008,08,15,06,47,18.60
2008,08,15,06,48,18.60
2008,08,15,06,49,18.60
2008,08,15,06,50,18.60
2008,08,15,06,51,18.60
2008,08,15,06,52,18.60
2008,08,15,06,53,18.60
2008,08,15,06,54,18.60
2008,08,15,06,55,18.70
2008,08,15,06,56,18.70
2008,08,15,06,57,18.70
2008,08,15,06,58,18.70
2008,08,15,06,59,18.70
2008,08,15,07,00,18.70
2008,08,15,07,01,18.70
2008,08,15,07,02,18.80
2008,08,15,07,03,18.80
2008,08,15,07,04,18.80
2008,08,15,07,05,18.90
2008,08,15,07,06,18.90
2008,08,15,07,07,18.90
2008,08,15,07,08,18.90
2008,08,15,07,09,18.90
2008,08,15,07,10,18.90
2008,08,15,07,11,19.00
2008,08,15,07,12,19.10
2008,08,15,07,13,19.10
2008,08,15,07,14,19.10
2008,08,15,07,15,19.10
2008,08,15,07,16,19.10
2008,08,15,07,17,19.10
2008,08,15,07,18,19.10
2008,08,15,07,19,19.10
2008,08,15,07,20,19.10
2008,08,15,07,21,19.20
2008,08,15,07,22,19.20
2008,08,15,07,23,19.20
2008,08,15,07,24,19.20
2008,08,15,07,25,19.20
2008,08,15,07,26,19.20
2008,08,15,07,27,19.20
2008,08,15,07,28,19.20
2008,08,15,07,29,19.20
2008,08,15,07,30,19.20
2008,08,15,07,31,19.20
2008,08,15,07,32,19.20
2008,08,15,07,33,19.20
2008,08,15,07,34,19.20
2008,08,15,07,35,19.30
2008,08,15,07,36,19.30
2008,08,15,07,37,19.30
2008,08,15,07,38,19.30
2008,08,15,07,39,19.30
2008,08,15,07,40,19.30
2008,08,15,07,41,19.40
2008,08,15,07,42,19.40
2008,08,15,07,43,19.40
2008,08,15,07,44,19.40
2008,08,15,07,45,19.40
2008,08,15,07,46,19.40
2008,08,15,07,47,19.50
2008,08,15,07,48,19.50
2008,08,15,07,49,19.50
2008,08,15,07,50,19.50
2008,08,15,07,51,19.50
2008,08,15,07,52,19.50
2008,08,15,07,53,19.60
2008,08,15,07,54,19.60
2008,08,15,07,55,19.60
2008,08,15,07,56,19.60
2008,08,15,07,57,19.70
2008,08,15,07,58,19.70
2008,08,15,07,59,19.70
2008,08,15,08,00,19.80
2008,08,15,08,01,19.80
2008,08,15,08,02,19.80
2008,08,15,08,03,19.90
2008,08,15,08,04,19.90
2008,08,15,08,05,19.90
2008,08,15,08,06,19.90
2008,08,15,08,07,19.90
2008,08,15,08,08,19.90
2008,08,15,08,09,20.10
2008,08,15,08,10,20.10
2008,08,15,08,11,20.20
2008,08,15,08,12,20.20
2008,08,15,08,13,20.20
2008,08,15,08,14,20.20
2008,08,15,08,15,20.30
2008,08,15,08,16,20.30
2008,08,15,08,17,20.40
2008,08,15,08,18,20.40
2008,08,15,08,19,20.50
2008,08,15,08,20,20.50
2008,08,15,08,21,20.60
2008,08,15,08,22,20.60
2008,08,15,08,23,20.70
2008,08,15,08,24,20.80
2008,08,15,08,25,20.80
2008,08,15,08,26,20.90
2008,08,15,08,27,21.00
2008,08,15,08,28,21.10
2008,08,15,08,29,21.20
2008,08,15,08,30,21.30
2008,08,15,08,31,21.30
2008,08,15,08,32,21.40
2008,08,15,08,33,21.60
2008,08,15,08,34,21.60
2008,08,15,08,35,21.70
2008,08,15,08,36,21.90
2008,08,15,08,37,22.00
2008,08,15,08,38,22.10
2008,08,15,08,39,22.20
2008,08,15,08,40,22.30
2008,08,15,08,41,22.40
2008,08,15,08,42,22.50
2008,08,15,08,43,22.50
2008,08,15,08,44,22.50
2008,08,15,08,45,22.60
2008,08,15,08,46,22.60
2008,08,15,08,47,22.50
2008,08,15,08,48,22.50
2008,08,15,08,49,22.40
2008,08,15,08,50,22.30
2008,08,15,08,51,22.20
2008,08,15,08,52,22.20
2008,08,15,08,53,22.10
2008,08,15,08,54,22.10
2008,08,15,08,55,22.00
2008,08,15,08,56,22.00
2008,08,15,08,57,22.00
2008,08,15,08,58,22.10
2008,08,15,08,59,22.10
2008,08,15,09,00,22.10
2008,08,15,09,01,22.20
2008,08,15,09,02,22.20
2008,08,15,09,03,22.30
2008,08,15,09,04,22.30
2008,08,15,09,05,22.40
2008,08,15,09,06,22.50
2008,08,15,09,07,22.50
2008,08,15,09,08,22.60
2008,08,15,09,09,22.60
2008,08,15,09,10,22.60
2008,08,15,09,11,22.60
2008,08,15,09,12,22.60
2008,08,15,09,13,22.50
2008,08,15,09,14,22.30
2008,08,15,09,15,22.20
2008,08,15,09,16,22.10
2008,08,15,09,17,22.00
2008,08,15,09,18,21.90
2008,08,15,09,19,21.80
2008,08,15,09,20,21.60
2008,08,15,09,21,21.60
2008,08,15,09,22,21.50
2008,08,15,09,23,21.40
2008,08,15,09,24,21.40
2008,08,15,09,25,21.40
2008,08,15,09,26,21.50
2008,08,15,09,27,21.60
2008,08,15,09,28,21.60
2008,08,15,09,29,21.70
2008,08,15,09,30,21.80
2008,08,15,09,31,21.90
2008,08,15,09,32,22.00
2008,08,15,09,33,22.10
2008,08,15,09,34,22.20
2008,08,15,09,35,22.30
2008,08,15,09,36,22.30
2008,08,15,09,37,22.50
2008,08,15,09,38,22.60
2008,08,15,09,39,22.60
2008,08,15,09,40,22.70
2008,08,15,09,41,22.70
2008,08,15,09,42,22.80
2008,08,15,09,43,22.80
2008,08,15,09,44,22.90
2008,08,15,09,45,22.90
2008,08,15,09,46,22.90
2008,08,15,09,47,22.90
2008,08,15,09,48,22.90
2008,08,15,09,49,22.90
2008,08,15,09,50,22.90
2008,08,15,09,51,22.90
2008,08,15,09,52,22.90
2008,08,15,09,53,22.90
2008,08,15,09,54,22.90
2008,08,15,09,55,22.90
2008,08,15,09,56,22.90
2008,08,15,09,57,22.90
2008,08,15,09,58,22.90
2008,08,15,09,59,22.90
2008,08,15,10,00,22.90
2008,08,15,10,01,22.90
2008,08,15,10,02,23.00
2008,08,15,10,03,23.10
2008,08,15,10,04,23.10
2008,08,15,10,05,23.20
2008,08,15,10,06,23.20
2008,08,15,10,07,23.30
2008,08,15,10,08,23.30
2008,08,15,10,09,23.30
2008,08,15,10,10,23.40
2008,08,15,10,11,23.40
2008,08,15,10,12,23.50
2008,08,15,10,13,23.60
2008,08,15,10,14,23.60
2008,08,15,10,15,23.60
2008,08,15,10,16,23.60
2008,08,15,10,17,23.70
2008,08,15,10,18,23.70
2008,08,15,10,19,23.70
2008,08,15,10,20,23.70
2008,08,15,10,21,23.80
2008,08,15,10,22,23.80
2008,08,15,10,23,23.80
2008,08,15,10,24,23.80
2008,08,15,10,25,23.80
2008,08,15,10,26,23.80
2008,08,15,10,27,23.90
2008,08,15,10,28,23.90
2008,08,15,10,29,24.00
2008,08,15,10,30,24.10
2008,08,15,10,31,24.10
2008,08,15,10,32,24.10
2008,08,15,10,33,24.10
2008,08,15,10,34,24.10
2008,08,15,10,35,24.10
2008,08,15,10,36,24.10
2008,08,15,10,37,24.10
2008,08,15,10,38,24.10
2008,08,15,10,39,24.10
2008,08,15,10,40,24.10
2008,08,15,10,41,24.10
2008,08,15,10,42,24.10
2008,08,15,10,43,24.10
2008,08,15,10,44,24.10
2008,08,15,10,45,24.10
2008,08,15,10,46,24.10
2008,08,15,10,47,24.00
2008,08,15,10,48,24.10
2008,08,15,10,49,24.10
2008,08,15,10,50,24.10
2008,08,15,10,51,24.10
2008,08,15,10,52,24.10
2008,08,15,10,53,24.10
2008,08,15,10,54,24.10
2008,08,15,10,55,24.00
2008,08,15,10,56,23.90
2008,08,15,10,57,23.90
2008,08,15,10,58,23.90
2008,08,15,10,59,23.80
2008,08,15,11,00,23.80
2008,08,15,11,01,23.80
2008,08,15,11,02,23.80
2008,08,15,11,03,23.80
2008,08,15,11,04,23.80
2008,08,15,11,05,23.80
2008,08,15,11,06,23.80
2008,08,15,11,07,23.80
2008,08,15,11,08,23.80
2008,08,15,11,09,23.90
2008,08,15,11,10,24.00
2008,08,15,11,11,24.10
2008,08,15,11,12,24.10
2008,08,15,11,13,24.20
2008,08,15,11,14,24.20
2008,08,15,11,15,24.30
2008,08,15,11,16,24.30
2008,08,15,11,17,24.40
2008,08,15,11,18,24.40
2008,08,15,11,19,24.40
2008,08,15,11,20,24.40
2008,08,15,11,21,24.40
2008,08,15,11,22,24.40
2008,08,15,11,23,24.40
2008,08,15,11,24,24.50
2008,08,15,11,25,24.50
2008,08,15,11,26,24.70
2008,08,15,11,27,24.70
2008,08,15,11,28,24.70
2008,08,15,11,29,24.70
2008,08,15,11,30,24.70
2008,08,15,11,31,24.70
2008,08,15,11,32,24.70
2008,08,15,11,33,24.80
2008,08,15,11,34,24.80
2008,08,15,11,35,24.80
2008,08,15,11,36,24.90
2008,08,15,11,37,24.90
2008,08,15,11,38,24.90
2008,08,15,11,39,24.80
2008,08,15,11,40,24.80
2008,08,15,11,41,24.80
2008,08,15,11,42,24.80
2008,08,15,11,43,24.80
2008,08,15,11,44,24.70
2008,08,15,11,45,24.70
2008,08,15,11,46,24.70
2008,08,15,11,47,24.70
2008,08,15,11,48,24.70
2008,08,15,11,49,24.70
2008,08,15,11,50,24.60
2008,08,15,11,51,24.60
2008,08,15,11,52,24.50
2008,08,15,11,53,24.50
2008,08,15,11,54,24.60
2008,08,15,11,55,24.50
2008,08,15,11,56,24.50
2008,08,15,11,57,24.50
2008,08,15,11,58,24.40
2008,08,15,11,59,24.40
2008,08,15,12,00,24.30
2008,08,15,12,01,24.20
2008,08,15,12,02,24.20
2008,08,15,12,03,24.20
2008,08,15,12,04,24.20
2008,08,15,12,05,24.20
2008,08,15,12,06,24.20
2008,08,15,12,07,24.30
2008,08,15,12,08,24.40
2008,08,15,12,09,24.40
2008,08,15,12,10,24.50
2008,08,15,12,11,24.60
2008,08,15,12,12,24.70
2008,08,15,12,13,24.80
2008,08,15,12,14,24.80
2008,08,15,12,15,24.80
2008,08,15,12,16,24.80
2008,08,15,12,17,24.80
2008,08,15,12,18,24.70
2008,08,15,12,19,24.60
2008,08,15,12,20,24.50
2008,08,15,12,21,24.50
2008,08,15,12,22,24.60
2008,08,15,12,23,24.60
2008,08,15,12,24,24.50
2008,08,15,12,25,24.50
2008,08,15,12,26,24.50
2008,08,15,12,27,24.50
2008,08,15,12,28,24.60
2008,08,15,12,29,24.70
2008,08,15,12,30,24.80
2008,08,15,12,31,24.80
2008,08,15,12,32,24.80
2008,08,15,12,33,24.80
2008,08,15,12,34,24.70
2008,08,15,12,35,24.70
2008,08,15,12,36,24.60
2008,08,15,12,37,24.60
2008,08,15,12,38,24.60
2008,08,15,12,39,24.60
2008,08,15,12,40,24.70
2008,08,15,12,41,24.70
2008,08,15,12,42,24.70
2008,08,15,12,43,24.80
2008,08,15,12,44,24.90
2008,08,15,12,45,25.00
2008,08,15,12,46,25.10
2008,08,15,12,47,25.20
2008,08,15,12,48,25.20
2008,08,15,12,49,25.20
2008,08,15,12,50,25.10
2008,08,15,12,51,25.10
2008,08,15,12,52,25.10
2008,08,15,12,53,25.10
2008,08,15,12,54,25.10
2008,08,15,12,55,25.10
2008,08,15,12,56,25.20
2008,08,15,12,57,25.30
2008,08,15,12,58,25.40
2008,08,15,12,59,25.50
2008,08,15,13,00,25.70
2008,08,15,13,01,25.70
2008,08,15,13,02,25.80
2008,08,15,13,03,25.80
2008,08,15,13,04,25.80
2008,08,15,13,05,25.80
2008,08,15,13,06,25.70
2008,08,15,13,07,25.70
2008,08,15,13,08,25.70
2008,08,15,13,09,25.70
2008,08,15,13,10,25.70
2008,08,15,13,11,25.80
2008,08,15,13,12,25.80
2008,08,15,13,13,25.80
2008,08,15,13,14,25.80
2008,08,15,13,15,25.80
2008,08,15,13,16,25.70
2008,08,15,13,17,25.50
2008,08,15,13,18,25.20
2008,08,15,13,19,25.00
2008,08,15,13,20,24.80
2008,08,15,13,21,24.60
2008,08,15,13,22,24.50
2008,08,15,13,23,24.40
2008,08,15,13,24,24.40
2008,08,15,13,25,24.30
2008,08,15,13,26,24.30
2008,08,15,13,27,24.40
2008,08,15,13,28,24.30
2008,08,15,13,29,24.30
2008,08,15,13,30,24.30
2008,08,15,13,31,24.40
2008,08,15,13,32,24.40
2008,08,15,13,33,24.50
2008,08,15,13,34,24.50
2008,08,15,13,35,24.60
2008,08,15,13,36,24.70
2008,08,15,13,37,24.80
2008,08,15,13,38,24.90
2008,08,15,13,39,24.90
2008,08,15,13,40,25.00
2008,08,15,13,41,25.10
2008,08,15,13,42,25.10
2008,08,15,13,43,25.10
2008,08,15,13,44,25.20
2008,08,15,13,45,25.20
2008,08,15,13,46,25.20
2008,08,15,13,47,25.20
2008,08,15,13,48,25.20
2008,08,15,13,49,25.20
2008,08,15,13,50,25.20
2008,08,15,13,51,25.20
2008,08,15,13,52,25.20
2008,08,15,13,53,25.20
2008,08,15,13,54,25.30
2008,08,15,13,55,25.30
2008,08,15,13,56,25.30
2008,08,15,13,57,25.30
2008,08,15,13,58,25.30
2008,08,15,13,59,25.30
2008,08,15,14,00,25.30
2008,08,15,14,01,25.30
2008,08,15,14,02,25.20
2008,08,15,14,03,25.20
2008,08,15,14,04,25.30
2008,08,15,14,05,25.30
2008,08,15,14,06,25.30
2008,08,15,14,07,25.30
2008,08,15,14,08,25.30
2008,08,15,14,09,25.20
2008,08,15,14,10,25.20
2008,08,15,14,11,25.20
2008,08,15,14,12,25.20
2008,08,15,14,13,25.30
2008,08,15,14,14,25.30
2008,08,15,14,15,25.40
2008,08,15,14,16,25.40
2008,08,15,14,17,25.50
2008,08,15,14,18,25.60
2008,08,15,14,19,25.60
2008,08,15,14,20,25.80
2008,08,15,14,21,25.90
2008,08,15,14,22,26.00
2008,08,15,14,23,26.10
2008,08,15,14,24,26.20
2008,08,15,14,25,26.30
2008,08,15,14,26,26.30
2008,08,15,14,27,26.20
2008,08,15,14,28,26.10
2008,08,15,14,29,26.00
2008,08,15,14,30,25.90
2008,08,15,14,31,25.80
2008,08,15,14,32,25.80
2008,08,15,14,33,25.70
2008,08,15,14,34,25.60
2008,08,15,14,35,25.50
2008,08,15,14,36,25.50
2008,08,15,14,37,25.50
2008,08,15,14,38,25.40
2008,08,15,14,39,25.40
2008,08,15,14,40,25.40
2008,08,15,14,41,25.40
2008,08,15,14,42,25.40
2008,08,15,14,43,25.40
2008,08,15,14,44,25.40
2008,08,15,14,45,25.50
2008,08,15,14,46,25.50
2008,08,15,14,47,25.50
2008,08,15,14,48,25.50
2008,08,15,14,49,25.50
2008,08,15,14,50,25.60
2008,08,15,14,51,25.70
2008,08,15,14,52,25.80
2008,08,15,14,53,25.80
2008,08,15,14,54,25.90
2008,08,15,14,55,25.90
2008,08,15,14,56,25.90
2008,08,15,14,57,25.80
2008,08,15,14,58,25.70
2008,08,15,14,59,25.60
2008,08,15,15,00,25.50
2008,08,15,15,01,25.40
2008,08,15,15,02,25.40
2008,08,15,15,03,25.40
2008,08,15,15,04,25.30
2008,08,15,15,05,25.20
2008,08,15,15,06,25.00
2008,08,15,15,07,24.90
2008,08,15,15,08,24.90
2008,08,15,15,09,24.80
2008,08,15,15,10,24.80
2008,08,15,15,11,24.70
2008,08,15,15,12,24.70
2008,08,15,15,13,24.70
2008,08,15,15,14,24.70
2008,08,15,15,15,24.60
2008,08,15,15,16,24.60
2008,08,15,15,17,24.50
2008,08,15,15,18,24.50
2008,08,15,15,19,24.40
2008,08,15,15,20,24.40
2008,08,15,15,21,24.40
2008,08,15,15,22,24.30
2008,08,15,15,23,24.30
2008,08,15,15,24,24.30
2008,08,15,15,25,24.30
2008,08,15,15,26,24.30
2008,08,15,15,27,24.40
2008,08,15,15,28,24.40
2008,08,15,15,29,24.50
2008,08,15,15,30,24.50
2008,08,15,15,31,24.50
2008,08,15,15,32,24.50
2008,08,15,15,33,24.50
2008,08,15,15,34,24.60
2008,08,15,15,35,24.70
2008,08,15,15,36,24.80
2008,08,15,15,37,24.90
2008,08,15,15,38,24.90
2008,08,15,15,39,24.90
2008,08,15,15,40,24.90
2008,08,15,15,41,24.90
2008,08,15,15,42,24.90
2008,08,15,15,43,24.90
2008,08,15,15,44,24.80
2008,08,15,15,45,24.80
2008,08,15,15,46,24.90
2008,08,15,15,47,24.90
2008,08,15,15,48,24.90
2008,08,15,15,49,25.00
2008,08,15,15,50,25.00
2008,08,15,15,51,25.10
2008,08,15,15,52,25.00
2008,08,15,15,53,25.10
2008,08,15,15,54,25.10
2008,08,15,15,55,25.10
2008,08,15,15,56,25.20
2008,08,15,15,57,25.20
2008,08,15,15,58,25.30
2008,08,15,15,59,25.30
2008,08,15,16,00,25.30
2008,08,15,16,01,25.40
2008,08,15,16,02,25.40
2008,08,15,16,03,25.40
2008,08,15,16,04,25.40
2008,08,15,16,05,25.40
2008,08,15,16,06,25.50
2008,08,15,16,07,25.40
2008,08,15,16,08,25.40
2008,08,15,16,09,25.30
2008,08,15,16,10,25.30
2008,08,15,16,11,25.40
2008,08,15,16,12,25.40
2008,08,15,16,13,25.40
2008,08,15,16,14,25.40
2008,08,15,16,15,25.40
2008,08,15,16,16,25.40
2008,08,15,16,17,25.50
2008,08,15,16,18,25.50
2008,08,15,16,19,25.40
2008,08,15,16,20,25.30
2008,08,15,16,21,25.10
2008,08,15,16,22,25.00
2008,08,15,16,23,24.90
2008,08,15,16,24,24.90
2008,08,15,16,25,24.90
2008,08,15,16,26,25.00
2008,08,15,16,27,25.10
2008,08,15,16,28,25.20
2008,08,15,16,29,25.40
2008,08,15,16,30,25.60
2008,08,15,16,31,25.90
2008,08,15,16,32,26.00
2008,08,15,16,33,26.30
2008,08,15,16,34,26.50
2008,08,15,16,35,26.60
2008,08,15,16,36,26.60
2008,08,15,16,37,26.60
2008,08,15,16,38,26.60
2008,08,15,16,39,26.40
2008,08,15,16,40,26.20
2008,08,15,16,41,26.10
2008,08,15,16,42,25.90
2008,08,15,16,43,25.80
2008,08,15,16,44,25.70
2008,08,15,16,45,25.70
2008,08,15,16,46,25.60
2008,08,15,16,47,25.60
2008,08,15,16,48,25.60
2008,08,15,16,49,25.60
2008,08,15,16,50,25.60
2008,08,15,16,51,25.60
2008,08,15,16,52,25.50
2008,08,15,16,53,25.50
2008,08,15,16,54,25.50
2008,08,15,16,55,25.60
2008,08,15,16,56,25.60
2008,08,15,16,57,25.70
2008,08,15,16,58,25.80
2008,08,15,16,59,25.90
2008,08,15,17,00,26.00
2008,08,15,17,01,26.20
2008,08,15,17,02,26.20
2008,08,15,17,03,26.30
2008,08,15,17,04,26.20
2008,08,15,17,05,26.10
2008,08,15,17,06,26.00
2008,08,15,17,07,25.90
2008,08,15,17,08,25.80
2008,08,15,17,09,25.70
2008,08,15,17,10,25.50
2008,08,15,17,11,25.40
2008,08,15,17,12,25.30
2008,08,15,17,13,25.20
2008,08,15,17,14,25.20
2008,08,15,17,15,25.10
2008,08,15,17,16,25.10
2008,08,15,17,17,25.20
2008,08,15,17,18,25.20
2008,08,15,17,19,25.30
2008,08,15,17,20,25.30
2008,08,15,17,21,25.40
2008,08,15,17,22,25.50
2008,08,15,17,23,25.60
2008,08,15,17,24,25.60
2008,08,15,17,25,25.70
2008,08,15,17,26,25.70
2008,08,15,17,27,25.70
2008,08,15,17,28,25.80
2008,08,15,17,29,25.80
2008,08,15,17,30,25.80